LEMUR-2-FURIAUS (42840 NORAD) Tracking and Keplerian Element Data

This shows tracking and keplerian element data for the satellite.

Feedback or suggestion? Click here.




ElementValue
Catalog42840
NameLEMUR-2-FURIAUS
Epoch Orbit46088
Epoch Day354.0636428
Epoch Year2025
RAAN169.9084
Inclination97.3692
Eccentricity0.0008725
Argument of Perigee344.9488
Mean Anonmoly15.1487
Mean Motion15.22341128
Decay Rate9.794E-05
L11 42840U 17042R 25354.06364280 .00009794 00000+0 42704-3 0 9998
L22 42840 97.3692 169.9084 0008725 344.9488 15.1487 15.22341128460886



Live tracking and technical data element details for LEMUR-2-FURIAUS (NORAD 42840). LEMUR-2-FURIAUS can be tracked NOW for your location showing map with azimuth and elevation plus other details from your city location.







IsCatalogInMostPopularTable: catalog: 42840, numindb: 473
Update: records affected: 1



GetName: 42840 LEMUR-2-FURIAUS

Hit Count: updated at: Sat, 07 Mar 2026 03:53:01 GMT